GW1237 Weather Reports


Display with metric or nautical units.
time (UTC)temp
F
wind
direction
speed
MPH
gust
MPH
rain 1hr
in
rain 24hr
in
rain mn
in
humidity
%
barometer
mb
20260510085109 51 211 1.0 1.0 0.00 0.00 0.00 99 1008.1
20260510084606 51 211 1.0 1.0 0.00 0.00 0.00 99 1008.2
20260510084103 51 211 1.0 1.0 0.00 0.00 0.00 99 1008.4
20260510083559 51 212 2.0 2.0 0.00 0.00 0.00 99 1008.5
20260510083055 51 205 1.0 1.0 0.00 0.00 0.00 99 1008.2
20260510082553 51 205 1.0 1.0 0.00 0.00 0.00 99 1008.3
20260510082048 51 205 2.0 2.0 0.00 0.00 0.00 99 1008.1
20260510081543 51 197 0.0 1.0 0.00 0.00 0.00 99 1008.0
20260510081039 51 187 1.0 1.0 0.00 0.00 0.00 99 1007.6
20260510080538 51 186 1.0 1.0 0.00 0.00 0.00 99 1007.8
20260510080036 51 187 0.0 0.0 0.00 0.00 0.00 99 1007.9
20260510075533 51 180 1.0 1.0 0.00 0.00 0.00 99 1008.0
20260510075030 51 164 1.0 1.0 0.00 0.00 0.00 99 1008.3
20260510074527 51 153 0.0 0.0 0.00 0.00 0.00 99 1008.5
20260510074022 51 145 1.0 2.0 0.00 0.00 0.00 99 1008.7
20260510073519 51 211 0.0 1.0 0.00 0.00 0.00 99 1008.9
20260510073016 52 211 0.0 0.0 0.00 0.00 0.00 99 1009.1
20260510072512 52 211 0.0 0.0 0.00 0.00 0.00 99 1009.3
20260510072008 52 211 0.0 0.0 0.00 0.00 0.00 99 1009.2
20260510071504 52 211 0.0 1.0 0.00 0.00 0.00 99 1009.1
20260510071003 52 211 4.0 5.0 0.00 0.00 0.00 99 1009.4
20260510070459 51 203 2.0 2.0 0.00 0.00 0.00 99 1009.1
20260510065955 51 171 0.0 0.0 0.00 0.00 0.00 99 1009.1
20260510065452 51 170 0.0 0.0 0.00 0.00 0.00 99 1009.2
20260510064948 51 171 0.0 0.0 0.00 0.00 0.00 99 1008.9
20260510064445 51 180 0.0 0.0 0.00 0.00 0.00 99 1009.0
20260510063942 51 180 0.0 1.0 0.00 0.00 0.00 99 1008.8
20260510063438 51 180 0.0 0.0 0.00 0.00 0.00 99 1008.8
20260510062937 51 180 0.0 0.0 0.00 0.00 0.00 99 1008.7
20260510062436 51 180 0.0 0.0 0.00 0.00 0.00 99 1008.5
20260510061932 51 180 0.0 0.0 0.00 0.00 0.00 99 1008.8
20260510061429 51 180 0.0 0.0 0.00 0.00 0.00 99 1008.5
20260510060925 51 180 0.0 0.0 0.00 0.00 0.00 99 1008.7
20260510060422 51 180 0.0 0.0 0.00 0.00 0.00 99 1008.7
20260510055918 51 180 0.0 0.0 0.00 0.00 0.00 99 1008.8
20260510055414 51 180 1.0 1.0 0.00 0.00 0.00 99 1008.7
20260510054907 51 180 0.0 0.0 0.00 0.00 0.00 99 1008.7
20260510054402 51 180 0.0 0.0 0.00 0.00 0.00 99 1008.5
20260510053857 51 180 0.0 0.0 0.00 0.00 0.00 99 1008.1
20260510053353 51 180 0.0 0.0 0.00 0.00 0.00 99 1008.4
20260510052850 51 189 0.0 0.0 0.00 0.00 0.00 99 1008.6
20260510052345 51 182 0.0 0.0 0.00 0.00 0.00 99 1008.5
20260510051842 51 205 1.0 1.0 0.00 0.00 0.00 99 1008.5
20260510051339 51 195 1.0 1.0 0.00 0.00 0.00 99 1008.5
20260510050835 51 195 0.0 0.0 0.00 0.00 0.00 99 1008.2
20260510050332 51 195 0.0 0.0 0.00 0.00 0.00 99 1008.7
20260510045829 52 193 0.0 0.0 0.00 0.00 0.00 99 1008.5
20260510045326 52 201 1.0 2.0 0.00 0.00 0.00 99 1008.7
20260510044823 51 197 1.0 1.0 0.00 0.00 0.00 99 1008.5
20260510044320 51 180 0.0 0.0 0.00 0.00 0.00 99 1008.5
20260510043816 51 180 0.0 0.0 0.00 0.00 0.00 99 1008.3
20260510043312 51 180 0.0 0.0 0.00 0.00 0.00 99 1008.5
20260510042810 51 179 0.0 0.0 0.00 0.00 0.00 99 1008.4
20260510042307 51 180 0.0 0.0 0.00 0.00 0.00 99 1008.3
20260510041802 51 180 0.0 0.0 0.00 0.00 0.00 99 1008.5
20260510041300 51 179 0.0 0.0 0.00 0.00 0.00 99 1008.6
20260510040757 51 180 0.0 0.0 0.00 0.00 0.00 99 1008.5
20260510040254 51 180 0.0 0.0 0.00 0.00 0.00 99 1008.6
20260510035749 51 180 0.0 0.0 0.00 0.30 0.30 99 1008.6
20260510035245 52 180 0.0 0.0 0.00 0.30 0.30 99 1008.5
20260510034741 52 187 0.0 0.0 0.00 0.30 0.30 99 1008.3
20260510034239 52 188 0.0 0.0 0.00 0.30 0.30 99 1008.3
20260510033734 52 188 0.0 0.0 0.00 0.30 0.30 99 1008.3
20260510033227 52 168 2.0 2.0 0.00 0.30 0.30 99 1008.4
20260510032723 52 179 1.0 1.0 0.00 0.30 0.30 99 1008.5
20260510032219 52 189 0.0 0.0 0.00 0.30 0.30 99 1008.5
20260510031714 52 192 0.0 0.0 0.00 0.30 0.30 99 1008.5
20260510031211 51 201 1.0 1.0 0.00 0.30 0.30 99 1008.5
20260510030710 51 201 0.0 0.0 0.00 0.30 0.30 99 1008.8
20260510030208 51 201 0.0 1.0 0.00 0.30 0.30 99 1008.7
20260510025705 51 201 0.0 0.0 0.00 0.30 0.30 99 1008.8
20260510025202 51 201 0.0 0.0 0.00 0.30 0.30 99 1008.5
20260510024659 51 201 0.0 0.0 0.00 0.30 0.30 99 1008.7
20260510024155 51 201 0.0 0.0 0.00 0.30 0.30 99 1008.6
20260510023651 51 201 0.0 1.0 0.00 0.30 0.30 99 1008.5
20260510023148 51 201 0.0 0.0 0.00 0.30 0.30 99 1008.5
20260510022643 52 201 0.0 0.0 0.00 0.30 0.30 99 1008.5
20260510022139 51 201 0.0 0.0 0.00 0.30 0.30 99 1008.5
20260510021634 51 201 1.0 1.0 0.00 0.30 0.30 99 1008.6
20260510021132 51 201 0.0 1.0 0.00 0.30 0.30 99 1008.6
20260510020626 51 201 0.0 0.0 0.00 0.30 0.30 99 1008.4
20260510020121 51 201 0.0 1.0 0.00 0.30 0.30 99 1008.3
20260510015618 51 201 0.0 0.0 0.00 0.30 0.30 99 1008.3
20260510015114 51 201 0.0 1.0 0.00 0.30 0.30 99 1008.4
20260510014610 51 201 0.0 0.0 0.00 0.30 0.30 99 1008.8
20260510014108 51 201 0.0 0.0 0.00 0.30 0.30 99 1008.6
20260510013602 51 201 0.0 0.0 0.00 0.30 0.30 99 1008.6
20260510013058 51 201 0.0 0.0 0.00 0.30 0.30 99 1008.8
20260510012557 51 201 0.0 0.0 0.00 0.30 0.30 99 1008.5
20260510012054 51 201 0.0 0.0 0.00 0.30 0.30 99 1008.9
20260510011553 51 201 0.0 0.0 0.00 0.30 0.30 99 1008.4
20260510011050 51 201 0.0 0.0 0.00 0.30 0.30 99 1008.5
20260510010546 51 201 0.0 0.0 0.00 0.30 0.30 99 1008.4
20260510010044 51 201 0.0 0.0 0.00 0.30 0.30 99 1008.4
20260510005539 51 201 0.0 0.0 0.00 0.30 0.30 99 1008.4
20260510005037 51 201 0.0 0.0 0.00 0.30 0.30 99 1008.8
20260510004534 51 201 0.0 0.0 0.00 0.30 0.30 99 1008.6
20260510004032 51 201 0.0 0.0 0.00 0.30 0.30 99 1008.4
20260510003529 51 201 0.0 0.0 0.00 0.30 0.30 99 1008.3
20260510003024 51 201 0.0 0.0 0.00 0.30 0.30 99 1008.2
20260510002520 51 201 0.0 1.0 0.00 0.30 0.30 99 1008.4
20260510002017 51 201 0.0 1.0 0.00 0.30 0.30 99 1008.0
20260510001514 51 201 0.0 0.0 0.00 0.30 0.30 99 1007.9
20260510001012 52 201 0.0 0.0 0.00 0.30 0.30 99 1008.0
20260510000507 52 201 0.0 0.0 0.00 0.30 0.30 99 1008.1
20260510000004 52 200 0.0 0.0 0.00 0.30 0.30 99 1008.2
20260509235501 52 200 0.0 0.0 0.00 0.30 0.30 99 1008.2
20260509234957 52 200 0.0 0.0 0.00 0.30 0.30 99 1008.3
20260509234454 52 199 0.0 0.0 0.00 0.30 0.30 99 1008.0
20260509233952 52 199 0.0 0.0 0.00 0.30 0.30 99 1008.0
20260509233449 52 199 0.0 0.0 0.00 0.30 0.30 99 1007.7
20260509232945 53 199 0.0 0.0 0.00 0.30 0.30 99 1007.9
20260509232443 53 199 0.0 0.0 0.00 0.30 0.30 99 1007.7
20260509231938 53 199 0.0 0.0 0.00 0.30 0.30 99 1007.4
20260509231435 53 199 0.0 0.0 0.00 0.30 0.30 99 1007.6
20260509230934 53 199 0.0 0.0 0.00 0.30 0.30 99 1007.6
20260509230430 53 199 0.0 0.0 0.00 0.30 0.30 99 1007.7
20260509225926 53 199 0.0 1.0 0.00 0.30 0.30 99 1007.3
20260509225422 53 199 0.0 0.0 0.00 0.30 0.30 99 1007.4
20260509224919 53 199 0.0 1.0 0.00 0.30 0.30 99 1007.6
20260509224414 53 199 1.0 1.0 0.00 0.30 0.30 99 1007.6
20260509223912 53 199 1.0 1.0 0.00 0.30 0.30 99 1007.5
20260509223408 53 200 1.0 1.0 0.00 0.30 0.30 99 1007.5
20260509222905 53 189 0.0 0.0 0.00 0.30 0.30 99 1007.7
20260509222401 53 189 0.0 1.0 0.00 0.30 0.30 99 1007.5
20260509221856 53 188 0.0 0.0 0.00 0.30 0.30 99 1007.8
20260509221354 53 188 0.0 0.0 0.00 0.30 0.30 99 1007.6
20260509220849 52 188 0.0 0.0 0.00 0.30 0.30 99 1008.0
20260509220345 52 188 0.0 0.0 0.00 0.30 0.30 99 1007.8
20260509215841 52 192 0.0 1.0 0.00 0.30 0.30 99 1007.9
20260509215337 52 179 0.0 0.0 0.00 0.30 0.30 99 1007.8
20260509214835 52 179 0.0 0.0 0.00 0.30 0.30 99 1008.0
20260509214332 51 179 0.0 0.0 0.00 0.30 0.30 99 1008.0
20260509213829 52 179 0.0 0.0 0.00 0.30 0.30 99 1008.1
20260509213324 52 179 0.0 0.0 0.00 0.30 0.30 99 1008.0
20260509212822 51 179 0.0 0.0 0.00 0.30 0.30 99 1008.1
20260509212320 51 178 0.0 0.0 0.00 0.30 0.30 99 1008.1
20260509211815 51 196 0.0 0.0 0.00 0.30 0.30 99 1008.2
20260509211311 51 196 0.0 0.0 0.00 0.30 0.30 99 1008.4
20260509210808 51 196 0.0 0.0 0.00 0.30 0.30 99 1008.4
20260509210306 51 196 0.0 0.0 0.00 0.30 0.30 99 1008.3
20260509205805 51 196 0.0 0.0 0.00 0.30 0.30 99 1008.3
20260509205300 51 196 0.0 0.0 0.00 0.30 0.30 99 1008.5
20260509204756 51 196 0.0 0.0 0.00 0.30 0.30 99 1008.4
20260509204253 50 195 0.0 0.0 0.00 0.30 0.30 99 1008.7
20260509203749 50 196 0.0 0.0 0.00 0.30 0.30 99 1008.7
20260509203247 50 196 0.0 0.0 0.00 0.30 0.30 99 1008.7
20260509202742 50 196 0.0 0.0 0.00 0.30 0.30 99 1009.0
20260509202238 50 196 0.0 0.0 0.00 0.30 0.30 99 1009.0
20260509201733 50 196 0.0 0.0 0.00 0.30 0.30 99 1009.0
20260509201230 50 196 1.0 1.0 0.00 0.30 0.30 99 1008.9
20260509200726 50 196 0.0 0.0 0.00 0.30 0.30 99 1009.0
20260509200221 51 196 1.0 1.0 0.00 0.30 0.30 99 1008.9
20260509195717 51 196 0.0 0.0 0.00 0.30 0.30 99 1009.0
20260509195213 51 196 0.0 0.0 0.00 0.30 0.30 99 1009.2
20260509194707 51 196 0.0 0.0 0.00 0.30 0.30 99 1009.1
20260509194204 51 196 0.0 1.0 0.00 0.30 0.30 99 1009.1
20260509193700 51 196 1.0 1.0 0.00 0.30 0.30 99 1009.1
20260509193155 51 196 1.0 1.0 0.00 0.30 0.30 99 1009.0
20260509192652 51 195 0.0 0.0 0.00 0.30 0.30 99 1009.1
20260509192147 51 195 0.0 0.0 0.00 0.30 0.30 99 1009.0
20260509191648 51 195 0.0 0.0 0.00 0.30 0.30 99 1009.3
20260509191144 51 195 0.0 1.0 0.00 0.30 0.30 99 1009.2
20260509190641 51 179 0.0 0.0 0.00 0.30 0.30 99 1009.3
20260509190138 51 180 1.0 1.0 0.00 0.30 0.30 99 1009.3
20260509185636 50 179 0.0 1.0 0.00 0.30 0.30 99 1009.1
20260509185132 50 190 0.0 1.0 0.07 0.30 0.30 99 1009.2
20260509184630 50 188 0.0 0.0 0.07 0.30 0.30 99 1009.3
20260509184126 50 206 1.0 1.0 0.05 0.29 0.29 99 1009.3
20260509183622 50 196 0.0 0.0 0.05 0.29 0.29 99 1009.3
20260509183117 50 195 0.0 0.0 0.07 0.28 0.28 99 1009.5
20260509182614 50 195 1.0 1.0 0.07 0.28 0.28 99 1009.6
20260509182111 50 195 1.0 1.0 0.00 0.27 0.27 99 1009.5
20260509181609 50 194 1.0 1.0 0.07 0.27 0.27 99 1009.3
20260509181106 50 192 0.0 0.0 0.00 0.26 0.26 99 1009.5
20260509180602 50 192 0.0 0.0 0.05 0.26 0.26 99 1009.6
20260509180100 50 192 0.0 0.0 0.05 0.26 0.26 99 1009.5
20260509175555 50 192 0.0 1.0 0.07 0.25 0.25 99 1009.6
20260509175052 50 192 0.0 0.0 0.07 0.25 0.25 99 1009.5
20260509174548 50 192 0.0 0.0 0.00 0.24 0.24 99 1009.5
20260509174043 49 192 0.0 1.0 0.00 0.24 0.24 99 1009.4
20260509173538 50 190 0.0 0.0 0.05 0.24 0.24 99 1009.4
20260509173035 50 190 0.0 1.0 0.05 0.24 0.24 99 1009.5
20260509172532 49 190 0.0 0.0 0.00 0.23 0.23 99 1009.5
20260509172027 49 190 0.0 1.0 0.00 0.23 0.23 99 1009.7
20260509171524 49 190 1.0 1.0 0.00 0.23 0.23 99 1009.8
20260509171020 49 186 1.0 1.0 0.00 0.23 0.23 99 1009.9
20260509170516 49 190 0.0 0.0 0.07 0.23 0.23 99 1009.8
20260509170012 49 66 1.0 1.0 0.07 0.23 0.23 99 1010.1
20260509165510 49 206 0.0 0.0 0.00 0.22 0.22 99 1010.1
20260509165006 49 207 0.0 1.0 0.00 0.22 0.22 99 1010.1
20260509164503 49 209 0.0 0.0 0.00 0.22 0.22 99 1010.2
20260509163958 48 206 0.0 0.0 0.00 0.22 0.22 99 1010.2
20260509163456 48 206 0.0 1.0 0.05 0.22 0.22 99 1010.7
20260509162955 48 206 1.0 1.0 0.05 0.22 0.22 99 1010.4
20260509162454 48 206 1.0 1.0 0.00 0.21 0.21 99 1010.3
20260509161949 48 206 1.0 1.0 0.00 0.21 0.21 99 1010.6
20260509161446 49 205 0.0 0.0 0.07 0.21 0.21 99 1010.7
20260509160941 48 203 0.0 0.0 0.07 0.21 0.21 99 1010.8
20260509160438 48 203 0.0 0.0 0.00 0.20 0.20 99 1010.5
20260509155933 48 203 1.0 2.0 0.05 0.20 0.20 99 1010.9
20260509155430 49 203 1.0 1.0 0.12 0.20 0.20 99 1010.9
20260509154926 48 203 0.0 1.0 0.12 0.19 0.19 99 1010.9
20260509154422 48 203 0.0 1.0 0.12 0.18 0.18 99 1011.0
20260509153920 48 202 1.0 1.0 0.12 0.17 0.17 99 1011.2
20260509153417 48 203 0.0 0.0 0.12 0.16 0.16 99 1011.1
20260509152914 48 202 0.0 0.0 0.14 0.15 0.15 99 1011.3
20260509152409 48 202 1.0 1.0 0.07 0.14 0.14 99 1011.3
20260509151907 48 202 0.0 0.0 0.05 0.13 0.13 99 1011.1
20260509151402 48 202 1.0 1.0 0.12 0.13 0.13 99 1011.5
20260509150901 48 203 0.0 0.0 0.07 0.12 0.12 99 1011.2
20260509150358 48 202 0.0 0.0 0.05 0.11 0.11 99 1011.2
20260509145856 48 202 0.0 0.0 0.12 0.11 0.11 99 1011.2
20260509145350 48 202 0.0 0.0 0.12 0.10 0.10 99 1011.1
20260509144847 48 202 0.0 0.0 0.05 0.09 0.09 99 1011.1
20260509144344 47 202 0.0 0.0 0.07 0.08 0.08 99 1011.2
20260509143841 48 202 0.0 0.0 0.07 0.08 0.08 99 1011.2
20260509143338 47 202 0.0 0.0 0.00 0.07 0.07 99 1011.2
20260509142834 47 202 0.0 0.0 0.05 0.07 0.07 99 1011.3
20260509142331 47 202 0.0 0.0 0.07 0.06 0.06 99 1011.4
20260509141826 47 202 0.0 0.0 0.07 0.06 0.06 99 1011.1
20260509141328 46 202 0.0 0.0 0.05 0.05 0.05 99 1011.2
20260509140820 46 202 0.0 0.0 0.12 0.05 0.05 99 1011.3
20260509140317 46 202 0.0 0.0 0.12 0.04 0.04 99 1011.3
20260509135815 45 202 0.0 0.0 0.05 0.03 0.03 99 1011.2
20260509135312 45 202 0.0 0.0 0.00 0.02 0.02 99 1011.3
20260509134809 44 202 0.0 0.0 0.07 0.02 0.02 99 1011.1
20260509134307 44 202 0.0 0.0 0.07 0.02 0.02 99 1011.3
20260509133804 44 202 0.0 0.0 0.00 0.01 0.01 99 1011.2
20260509133300 43 202 0.0 0.0 0.00 0.01 0.01 99 1011.3
20260509132759 43 202 0.0 0.0 0.00 0.01 0.01 99 1011.2
20260509132257 43 202 0.0 0.0 0.07 0.01 0.01 99 1011.5
20260509131753 43 202 0.0 0.0 0.07 0.01 0.01 98 1011.3
20260509131250 42 202 0.0 0.0 0.00 0.00 0.00 98 1011.3
20260509130746 43 202 0.0 1.0 0.00 0.00 0.00 99 1011.3
20260509130242 43 202 0.0 0.0 0.00 0.00 0.00 99 1011.4
20260509125739 43 202 0.0 0.0 0.00 0.00 0.00 99 1011.5
20260509125236 42 202 0.0 0.0 0.00 0.00 0.00 99 1011.6
20260509124732 42 202 0.0 0.0 0.00 0.00 0.00 99 1011.5
20260509124229 41 202 0.0 0.0 0.00 0.00 0.00 99 1011.4
20260509123727 41 202 0.0 0.0 0.00 0.00 0.00 99 1011.5
20260509123224 41 201 0.0 0.0 0.00 0.00 0.00 99 1011.4
20260509122720 40 201 0.0 0.0 0.00 0.00 0.00 99 1011.4
20260509122217 40 201 0.0 0.0 0.00 0.00 0.00 98 1011.6
20260509121713 40 202 0.0 0.0 0.00 0.00 0.00 99 1011.8
20260509121211 40 202 0.0 0.0 0.00 0.00 0.00 99 1011.6
20260509120709 40 202 0.0 0.0 0.00 0.00 0.00 99 1011.8
20260509120207 40 201 0.0 0.0 0.00 0.00 0.00 99 1011.8
20260509115704 39 201 0.0 0.0 0.00 0.00 0.00 99 1011.9
20260509115201 39 202 0.0 0.0 0.00 0.00 0.00 99 1011.7
20260509114700 38 201 0.0 0.0 0.00 0.00 0.00 99 1011.7
20260509114158 38 201 0.0 0.0 0.00 0.00 0.00 99 1011.8
20260509113656 38 202 0.0 1.0 0.00 0.00 0.00 99 1011.8
20260509113153 37 202 0.0 0.0 0.00 0.00 0.00 99 1011.7
20260509112649 37 202 0.0 0.0 0.00 0.00 0.00 99 1011.9
20260509112147 36 202 0.0 0.0 0.00 0.00 0.00 99 1011.7
20260509111644 36 202 0.0 0.0 0.00 0.00 0.00 99 1011.7
20260509111140 35 202 0.0 1.0 0.00 0.00 0.00 99 1011.7
20260509110638 34 201 0.0 0.0 0.00 0.00 0.00 99 1011.8
20260509110135 34 201 0.0 0.0 0.00 0.00 0.00 99 1011.8
20260509105633 33 201 0.0 1.0 0.00 0.00 0.00 99 1012.1
20260509105130 33 201 0.0 0.0 0.00 0.00 0.00 99 1012.1
20260509104627 33 201 0.0 0.0 0.00 0.00 0.00 99 1012.1
20260509104123 33 201 0.0 0.0 0.00 0.00 0.00 99 1012.3
20260509103622 33 201 0.0 0.0 0.00 0.00 0.00 99 1012.1
20260509103119 33 201 0.0 0.0 0.00 0.00 0.00 99 1012.1
20260509102616 33 201 0.0 0.0 0.00 0.00 0.00 99 1012.3
20260509102113 33 201 0.0 0.0 0.00 0.00 0.00 99 1012.1
20260509101609 32 201 0.0 0.0 0.00 0.00 0.00 99 1012.1
20260509101106 32 201 0.0 0.0 0.00 0.00 0.00 99 1012.1
20260509100604 32 201 0.0 0.0 0.00 0.00 0.00 99 1012.1
20260509095557 32 201 0.0 0.0 0.00 0.00 0.00 99 1012.0
20260509095055 32 201 0.0 0.0 0.00 0.00 0.00 99 1012.2
20260509094551 32 201 0.0 0.0 0.00 0.00 0.00 99 1012.1
20260509094048 32 202 0.0 0.0 0.00 0.00 0.00 99 1012.3
20260509093547 31 202 0.0 0.0 0.00 0.00 0.00 99 1012.3
20260509093044 31 202 0.0 0.0 0.00 0.00 0.00 99 1012.2
20260509092541 31 202 0.0 0.0 0.00 0.00 0.00 99 1012.1
20260509092040 31 202 0.0 0.0 0.00 0.00 0.00 99 1012.2
20260509091537 31 202 0.0 0.0 0.00 0.00 0.00 99 1012.0
20260509091033 30 202 0.0 0.0 0.00 0.00 0.00 99 1012.2
20260509090531 30 202 0.0 0.0 0.00 0.00 0.00 99 1011.9
20260509090029 30 202 0.0 0.0 0.00 0.00 0.00 99 1012.2
20260509085526 30 202 0.0 0.0 0.00 0.00 0.00 99 1012.2